GW4499 Weather Reports


Display with metric or nautical units.
time (UTC)temp
F
wind
direction
speed
MPH
gust
MPH
rain 1hr
in
rain 24hr
in
rain mn
in
humidity
%
barometer
mb
20260831095519 59 0.0 0.0 0.00 0.01 0.00 82 1017.4
20260831094519 59 0.0 0.0 0.00 0.01 0.00 82 1017.5
20260831093519 59 0.0 1.0 0.00 0.01 0.00 82 1017.4
20260831092520 59 0.0 0.0 0.00 0.01 0.00 82 1016.9
20260831091540 59 0.0 0.0 0.00 0.01 0.00 81 1016.8
20260831090519 60 0.0 0.0 0.00 0.01 0.00 81 1017.0
20260831085520 60 0.0 0.0 0.00 0.01 0.00 79 1017.2
20260831084519 61 0.0 0.0 0.00 0.01 0.00 79 1017.3
20260831083519 61 0.0 0.0 0.00 0.01 0.00 78 1017.3
20260831082519 61 0.0 0.0 0.00 0.01 0.00 76 1017.3
20260831081519 61 0.0 1.0 0.00 0.01 0.00 76 1017.2
20260831080539 61 0.0 0.0 0.00 0.01 0.00 74 1017.0
20260831075539 62 0.0 0.0 0.00 0.01 0.00 74 1017.4
20260831074519 62 0.0 0.0 0.00 0.01 0.00 72 1017.4
20260831073519 63 0.0 0.0 0.00 0.01 0.00 71 1017.3
20260831072559 64 0.0 1.0 0.00 0.01 0.00 69 1017.3
20260831071519 64 0.0 0.0 0.00 0.01 0.00 68 1017.4
20260831070519 65 0.0 1.0 0.00 0.01 0.00 67 1017.7
20260831065519 65 0.0 1.0 0.00 0.01 0.00 68 1019.7
20260831064519 65 315 1.0 2.0 0.00 0.01 0.00 69 1020.0
20260831063519 65 0.0 2.0 0.00 0.01 0.00 72 1020.1
20260831061519 65 315 1.0 2.0 0.00 0.01 0.00 69 1020.2
20260831060519 65 315 2.0 4.0 0.00 0.01 0.00 72 1020.4
20260831060059 65 0.0 2.0 0.00 0.01 0.01 73 1020.5
20260831055059 64 158 1.0 3.0 0.00 0.01 0.01 74 1019.6
20260831054039 64 0.0 1.0 0.00 0.01 0.01 77 1019.8
20260831053019 64 0.0 0.0 0.00 0.01 0.01 76 1019.7
20260831052039 64 0.0 1.0 0.00 0.01 0.01 74 1019.5
20260831051019 64 0.0 0.0 0.00 0.01 0.01 73 1019.4
20260831050019 64 0.0 0.0 0.00 0.01 0.01 74 1019.6
20260831045019 64 0.0 0.0 0.00 0.01 0.01 73 1018.9
20260831044019 65 0.0 0.0 0.00 0.01 0.01 74 1019.0
20260831043039 64 0.0 0.0 0.00 0.01 0.01 74 1019.0
20260831042019 64 0.0 0.0 0.00 0.01 0.01 73 1018.7
20260831041019 64 0.0 0.0 0.00 0.01 0.01 72 1018.4
20260831040019 64 0.0 0.0 0.00 0.01 0.01 72 1018.2
20260831035039 65 0.0 0.0 0.00 0.01 0.01 72 1017.8
20260831034019 65 0.0 0.0 0.00 0.01 0.01 72 1018.3
20260831033019 64 0.0 0.0 0.00 0.01 0.01 71 1017.6
20260831032059 65 0.0 0.0 0.00 0.01 0.01 73 1017.3
20260831031019 65 0.0 0.0 0.00 0.01 0.01 74 1017.5
20260831030039 65 0.0 1.0 0.00 0.01 0.01 72 1017.5
20260831025019 64 0.0 0.0 0.00 0.01 0.01 74 1016.8
20260831024019 65 0.0 0.0 0.00 0.01 0.01 72 1016.5
20260831023019 65 0.0 0.0 0.00 0.01 0.01 71 1016.6
20260831022019 65 0.0 0.0 0.00 0.01 0.01 71 1016.3
20260831021019 66 0.0 0.0 0.00 0.01 0.01 69 1016.4
20260831020041 67 0.0 0.0 0.00 0.01 0.01 68 1016.1
20260831015019 67 0.0 0.0 0.00 0.01 0.01 67 1016.4
20260831014019 68 0.0 0.0 0.00 0.01 0.01 65 1016.8
20260831013018 68 0.0 0.0 0.00 0.01 0.01 63 1016.5
20260831012019 69 0.0 0.0 0.00 0.01 0.01 64 1016.7
20260831011018 69 0.0 1.0 0.00 0.01 0.01 63 1016.8
20260831010039 70 0.0 0.0 0.00 0.01 0.01 60 1016.8
20260831005018 70 0.0 0.0 0.00 0.01 0.01 56 1016.9
20260831004018 70 0.0 0.0 0.00 0.01 0.01 58 1017.2
20260831003018 71 0.0 0.0 0.00 0.01 0.01 58 1017.4
20260831002018 71 0.0 0.0 0.00 0.01 0.01 57 1017.5
20260831001019 72 0.0 0.0 0.00 0.01 0.01 53 1017.6
20260831000019 72 0.0 0.0 0.00 0.01 0.01 52 1017.5
20260830235019 73 0.0 0.0 0.00 0.01 0.01 56 1017.3
20260830234019 72 0.0 0.0 0.00 0.01 0.01 54 1017.2
20260830233021 72 0.0 1.0 0.00 0.01 0.01 50 1017.0
20260830232021 72 0.0 1.0 0.00 0.01 0.01 46 1016.7
20260830231020 72 0.0 0.0 0.00 0.01 0.01 50 1016.8
20260830230020 72 0.0 0.0 0.00 0.01 0.01 48 1016.5
20260830225020 72 0.0 1.0 0.00 0.01 0.01 51 1016.3
20260830224021 72 0.0 0.0 0.00 0.01 0.01 57 1016.7
20260830223020 72 0.0 0.0 0.00 0.01 0.01 50 1016.7
20260830222021 72 0.0 0.0 0.00 0.01 0.01 48 1016.7
20260830221020 73 0.0 1.0 0.00 0.01 0.01 44 1016.5
20260830220041 73 0.0 0.0 0.00 0.01 0.01 47 1016.7
20260830215020 73 0.0 0.0 0.00 0.01 0.01 54 1017.2
20260830214021 73 0.0 0.0 0.00 0.01 0.01 55 1017.2
20260830213020 72 0.0 0.0 0.00 0.01 0.01 58 1017.2
20260830212020 72 315 1.0 2.0 0.00 0.01 0.01 61 1017.5
20260830211020 71 0.0 0.0 0.00 0.01 0.01 62 1017.3
20260830210020 73 0.0 0.0 0.00 0.01 0.01 62 1017.9
20260830205020 74 0.0 0.0 0.00 0.01 0.01 58 1017.8
20260830204040 74 0.0 0.0 0.00 0.01 0.01 57 1018.0
20260830203020 74 0.0 0.0 0.00 0.01 0.01 52 1017.9
20260830202020 74 0.0 2.0 0.00 0.01 0.01 51 1017.9
20260830201020 74 315 1.0 3.0 0.00 0.01 0.01 52 1018.1
20260830200020 74 293 1.0 4.0 0.00 0.01 0.01 53 1017.8
20260830195020 73 0.0 0.0 0.00 0.01 0.01 58 1016.9
20260830194020 72 0.0 2.0 0.01 0.01 0.01 61 1016.3
20260830193021 72 338 1.0 3.0 0.01 0.01 0.01 57 1016.2
20260830192040 71 0.0 0.0 0.01 0.01 0.01 63 1016.1
20260830191020 70 315 1.0 4.0 0.01 0.01 0.01 65 1016.3
20260830190020 71 315 1.0 4.0 0.01 0.01 0.01 65 1016.6
20260830185020 73 315 2.0 5.0 0.01 0.01 0.01 59 1017.2
20260830184020 83 315 2.0 6.0 0.00 0.00 0.00 33 1018.4
20260830183020 84 0.0 2.0 0.00 0.00 0.00 34 1017.0
20260830182020 84 0.0 3.0 0.00 0.00 0.00 35 1016.9
20260830181020 84 0.0 0.0 0.00 0.00 0.00 33 1016.9
20260830180040 84 0.0 1.0 0.00 0.00 0.00 36 1017.2
20260830175020 83 0.0 2.0 0.00 0.00 0.00 35 1017.2
20260830174022 81 315 1.0 2.0 0.00 0.00 0.00 37 1016.9
20260830173020 80 0.0 2.0 0.00 0.00 0.00 40 1017.2
20260830172020 80 315 1.0 2.0 0.00 0.00 0.00 39 1017.3
20260830171020 78 0.0 1.0 0.00 0.00 0.00 44 1017.0
20260830170020 78 0.0 1.0 0.00 0.00 0.00 42 1017.0
20260830165040 77 0.0 1.0 0.00 0.00 0.00 45 1016.7
20260830164020 76 0.0 0.0 0.00 0.00 0.00 48 1016.5
20260830163020 75 0.0 0.0 0.00 0.00 0.00 50 1016.7
20260830162020 74 0.0 1.0 0.00 0.00 0.00 55 1016.9
20260830161020 74 0.0 0.0 0.00 0.00 0.00 54 1017.1
20260830160040 73 0.0 0.0 0.00 0.00 0.00 55 1016.9
20260830155040 72 0.0 0.0 0.00 0.00 0.00 56 1016.8
20260830154020 71 0.0 1.0 0.00 0.00 0.00 58 1017.0
20260830153020 70 0.0 1.0 0.00 0.00 0.00 59 1016.9
20260830152020 69 315 1.0 3.0 0.00 0.00 0.00 64 1017.1
20260830151020 68 0.0 0.0 0.00 0.00 0.00 70 1016.9
20260830150020 67 0.0 0.0 0.00 0.00 0.00 75 1016.2
20260830145020 66 0.0 0.0 0.00 0.00 0.00 74 1016.3
20260830144020 66 0.0 0.0 0.00 0.00 0.00 72 1016.3
20260830143020 66 0.0 0.0 0.00 0.00 0.00 72 1016.0
20260830142020 65 0.0 0.0 0.00 0.00 0.00 72 1016.1
20260830141020 65 0.0 0.0 0.00 0.00 0.00 73 1016.1
20260830140020 65 0.0 0.0 0.00 0.00 0.00 68 1016.0
20260830135019 65 0.0 0.0 0.00 0.00 0.00 67 1015.8
20260830134022 66 0.0 0.0 0.00 0.00 0.00 63 1015.9
20260830133019 66 0.0 0.0 0.00 0.00 0.00 62 1016.0
20260830132020 67 0.0 0.0 0.00 0.00 0.00 60 1015.9
20260830131019 67 0.0 0.0 0.00 0.00 0.00 57 1015.5
20260830130019 67 0.0 0.0 0.00 0.00 0.00 56 1015.6
20260830125019 67 135 1.0 2.0 0.00 0.00 0.00 56 1015.7
20260830124019 68 158 1.0 4.0 0.00 0.00 0.00 54 1016.1
20260830123019 69 135 1.0 4.0 0.00 0.00 0.00 50 1015.4
20260830122019 70 0.0 1.0 0.00 0.00 0.00 48 1016.6
20260830121020 70 0.0 1.0 0.00 0.00 0.00 49 1016.4
20260830120020 69 0.0 2.0 0.00 0.00 0.00 49 1016.4
20260830115019 67 0.0 1.0 0.00 0.00 0.00 54 1016.3
20260830114019 67 0.0 0.0 0.00 0.00 0.00 54 1016.5
20260830113019 67 0.0 1.0 0.00 0.00 0.00 55 1016.3
20260830112019 68 0.0 0.0 0.00 0.00 0.00 54 1016.5
20260830111039 67 0.0 2.0 0.00 0.00 0.00 58 1016.0
20260830110020 66 0.0 2.0 0.00 0.00 0.00 58 1016.0
20260830105019 66 0.0 1.0 0.00 0.00 0.00 59 1015.6
20260830104019 65 0.0 3.0 0.00 0.00 0.00 66 1015.6
20260830103040 64 0.0 0.0 0.00 0.00 0.00 66 1015.3
20260830102019 65 0.0 0.0 0.00 0.00 0.00 66 1016.1
20260830101019 65 0.0 0.0 0.00 0.00 0.00 65 1016.1
20260830100019 66 0.0 0.0 0.00 0.00 0.00 66 1016.3